Hourly Weather Pruszcz Gdański

Today, 10 July, Friday

Time Temperature Precipitation Wind Pressure Humidity
00:00 +15°C° 1.3 mm 4 mps 755 mmHg 98%
01:00 +15°C° 0 mm 5 mps 755 mmHg 98%
02:00 +15°C° 0.3 mm 5 mps 755 mmHg 97%
03:00 +16°C° 0.3 mm 5 mps 754 mmHg 96%
04:00 +16°C° 0.3 mm 5 mps 754 mmHg 95%
05:00 +16°C° 0 mm 5 mps 754 mmHg 93%
06:00 +16°C° 0 mm 5 mps 754 mmHg 92%
07:00 +16°C° 0 mm 5 mps 754 mmHg 90%
08:00 +18°C° 0 mm 4 mps 755 mmHg 87%
09:00 +18°C° 0 mm 4 mps 755 mmHg 83%
10:00 +19°C° 0 mm 3 mps 755 mmHg 80%
11:00 +20°C° 0 mm 3 mps 755 mmHg 78%
12:00 +20°C° 0 mm 2 mps 755 mmHg 76%
13:00 +21°C° 0 mm 2 mps 755 mmHg 74%
14:00 +20°C° 0.2 mm 3 mps 754 mmHg 79%
15:00 +20°C° 0.2 mm 3 mps 754 mmHg 84%
16:00 +20°C° 0.2 mm 4 mps 753 mmHg 89%
17:00 +20°C° 0.3 mm 4 mps 753 mmHg 90%
18:00 +20°C° 0.3 mm 4 mps 752 mmHg 92%
19:00 +20°C° 0.3 mm 4 mps 751 mmHg 93%
20:00 +19°C° 0 mm 5 mps 752 mmHg 91%
21:00 +17°C° 0 mm 7 mps 752 mmHg 90%
22:00 +16°C° 0 mm 8 mps 753 mmHg 89%
23:00 +15°C° 0 mm 8 mps 754 mmHg 88%

Tomorrow, 11 July, Saturday

Time Temperature Precipitation Wind Pressure Humidity
00:00 +12°C° 0 mm 7 mps 755 mmHg 86%
01:00 +11°C° 0 mm 7 mps 757 mmHg 85%
02:00 +11°C° 0 mm 7 mps 757 mmHg 86%
03:00 +10°C° 0 mm 7 mps 758 mmHg 86%
04:00 +10°C° 0 mm 6 mps 758 mmHg 86%
05:00 +11°C° 0 mm 7 mps 759 mmHg 82%
06:00 +12°C° 0 mm 7 mps 759 mmHg 79%
07:00 +14°C° 0 mm 7 mps 760 mmHg 75%
08:00 +15°C° 0 mm 7 mps 760 mmHg 71%
09:00 +16°C° 0 mm 7 mps 761 mmHg 68%
10:00 +17°C° 0 mm 6 mps 761 mmHg 64%
11:00 +17°C° 0 mm 6 mps 762 mmHg 63%
12:00 +17°C° 0 mm 6 mps 762 mmHg 61%
13:00 +19°C° 0 mm 5 mps 762 mmHg 60%
14:00 +19°C° 0 mm 5 mps 762 mmHg 60%
15:00 +19°C° 0 mm 5 mps 762 mmHg 61%
16:00 +19°C° 0 mm 4 mps 762 mmHg 61%
17:00 +18°C° 0 mm 4 mps 762 mmHg 65%
18:00 +17°C° 0 mm 4 mps 762 mmHg 70%
19:00 +16°C° 0 mm 3 mps 762 mmHg 74%
20:00 +14°C° 0 mm 3 mps 763 mmHg 77%
21:00 +12°C° 0 mm 3 mps 763 mmHg 80%
22:00 +11°C° 0 mm 3 mps 763 mmHg 82%
23:00 +11°C° 0 mm 3 mps 763 mmHg 84%

Day after tomorrow, 12 July, Sunday

Time Temperature Precipitation Wind Pressure Humidity
00:00 +10°C° 0 mm 3 mps 763 mmHg 86%
01:00 +10°C° 0 mm 4 mps 763 mmHg 89%
02:00 +10°C° 0 mm 4 mps 763 mmHg 90%
03:00 +10°C° 0 mm 4 mps 764 mmHg 91%
04:00 +10°C° 0 mm 4 mps 764 mmHg 92%
05:00 +11°C° 0 mm 4 mps 764 mmHg 86%
06:00 +13°C° 0 mm 5 mps 764 mmHg 80%
07:00 +14°C° 0 mm 5 mps 764 mmHg 73%
08:00 +15°C° 0.1 mm 5 mps 764 mmHg 69%
09:00 +16°C° 0.1 mm 5 mps 764 mmHg 65%
10:00 +17°C° 0.1 mm 5 mps 765 mmHg 61%
11:00 +17°C° 0.2 mm 5 mps 765 mmHg 60%
12:00 +19°C° 0.2 mm 5 mps 765 mmHg 60%
13:00 +19°C° 0.2 mm 5 mps 765 mmHg 60%
14:00 +19°C° 0.2 mm 6 mps 765 mmHg 62%
15:00 +17°C° 0.2 mm 6 mps 765 mmHg 63%
16:00 +17°C° 0.2 mm 6 mps 764 mmHg 65%
17:00 +16°C° 0 mm 5 mps 764 mmHg 68%
18:00 +15°C° 0 mm 5 mps 764 mmHg 72%
19:00 +15°C° 0 mm 4 mps 764 mmHg 75%
20:00 +13°C° 0 mm 4 mps 764 mmHg 79%
21:00 +12°C° 0 mm 4 mps 764 mmHg 82%
22:00 +11°C° 0 mm 4 mps 764 mmHg 86%
23:00 +11°C° 0 mm 4 mps 764 mmHg 88%

13 July, Monday

Time Temperature Precipitation Wind Pressure Humidity
00:00 +11°C° 0 mm 4 mps 764 mmHg 90%
01:00 +10°C° 0 mm 5 mps 764 mmHg 92%
02:00 +11°C° 0 mm 4 mps 763 mmHg 93%
03:00 +11°C° 0 mm 4 mps 763 mmHg 94%
04:00 +11°C° 0 mm 4 mps 763 mmHg 95%
05:00 +12°C° 0 mm 4 mps 763 mmHg 90%
06:00 +14°C° 0 mm 4 mps 763 mmHg 84%
07:00 +17°C° 0 mm 4 mps 763 mmHg 79%
08:00 +18°C° 0 mm 4 mps 763 mmHg 74%
09:00 +19°C° 0 mm 4 mps 763 mmHg 69%
10:00 +20°C° 0 mm 4 mps 763 mmHg 64%
11:00 +20°C° 0.3 mm 4 mps 763 mmHg 66%
12:00 +20°C° 0.3 mm 5 mps 763 mmHg 68%
13:00 +20°C° 0.3 mm 5 mps 763 mmHg 69%
14:00 +20°C° 0.2 mm 5 mps 763 mmHg 70%
15:00 +19°C° 0.2 mm 5 mps 763 mmHg 70%
16:00 +19°C° 0.2 mm 4 mps 762 mmHg 71%
17:00 +18°C° 0.1 mm 4 mps 763 mmHg 74%
18:00 +18°C° 0.1 mm 4 mps 763 mmHg 77%
19:00 +17°C° 0.1 mm 3 mps 763 mmHg 80%
20:00 +14°C° 0 mm 3 mps 763 mmHg 84%
21:00 +13°C° 0 mm 3 mps 762 mmHg 88%
22:00 +13°C° 0 mm 2 mps 762 mmHg 92%
23:00 +12°C° 0 mm 2 mps 762 mmHg 93%

14 July, Tuesday

Time Temperature Precipitation Wind Pressure Humidity
00:00 +12°C° 0 mm 2 mps 762 mmHg 94%
01:00 +12°C° 0 mm 2 mps 762 mmHg 94%
02:00 +12°C° 0 mm 2 mps 762 mmHg 94%
03:00 +10°C° 0 mm 2 mps 762 mmHg 94%
04:00 +10°C° 0 mm 2 mps 762 mmHg 94%
05:00 +13°C° 0 mm 2 mps 762 mmHg 90%
06:00 +15°C° 0 mm 2 mps 762 mmHg 85%
07:00 +16°C° 0 mm 2 mps 762 mmHg 81%
08:00 +18°C° 0 mm 2 mps 762 mmHg 75%
09:00 +19°C° 0 mm 2 mps 762 mmHg 69%
10:00 +20°C° 0 mm 2 mps 761 mmHg 62%
11:00 +20°C° 0 mm 2 mps 761 mmHg 61%
12:00 +21°C° 0 mm 2 mps 761 mmHg 60%
13:00 +21°C° 0 mm 2 mps 761 mmHg 59%
14:00 +21°C° 0 mm 2 mps 761 mmHg 60%
15:00 +21°C° 0 mm 2 mps 761 mmHg 61%
16:00 +21°C° 0 mm 2 mps 760 mmHg 62%
17:00 +20°C° 0 mm 2 mps 760 mmHg 69%
18:00 +19°C° 0 mm 2 mps 760 mmHg 76%
19:00 +18°C° 0 mm 2 mps 760 mmHg 82%
20:00 +17°C° 0 mm 2 mps 760 mmHg 85%
21:00 +15°C° 0 mm 1 mps 760 mmHg 87%
22:00 +14°C° 0 mm 1 mps 760 mmHg 90%
23:00 +14°C° 0 mm 1 mps 760 mmHg 90%

15 July, Wednesday

Time Temperature Precipitation Wind Pressure Humidity
00:00 +14°C° 0 mm 1 mps 760 mmHg 89%
01:00 +14°C° 0 mm 2 mps 760 mmHg 89%
02:00 +14°C° 0 mm 2 mps 760 mmHg 90%
03:00 +14°C° 0 mm 2 mps 759 mmHg 91%
04:00 +13°C° 0 mm 2 mps 759 mmHg 92%
05:00 +14°C° 0 mm 3 mps 759 mmHg 88%
06:00 +16°C° 0 mm 3 mps 759 mmHg 85%
07:00 +18°C° 0 mm 3 mps 759 mmHg 81%
08:00 +19°C° 0 mm 4 mps 758 mmHg 76%
09:00 +20°C° 0 mm 4 mps 758 mmHg 70%
10:00 +22°C° 0 mm 4 mps 758 mmHg 65%
11:00 +22°C° 0.2 mm 4 mps 758 mmHg 63%
12:00 +23°C° 0.2 mm 4 mps 757 mmHg 61%
13:00 +25°C° 0.2 mm 4 mps 757 mmHg 60%
14:00 +25°C° 0.2 mm 4 mps 757 mmHg 60%
15:00 +25°C° 0.2 mm 4 mps 756 mmHg 60%
16:00 +25°C° 0.2 mm 4 mps 756 mmHg 61%
17:00 +23°C° 0.1 mm 4 mps 755 mmHg 67%
18:00 +22°C° 0.1 mm 4 mps 755 mmHg 73%
19:00 +20°C° 0.1 mm 4 mps 755 mmHg 79%
20:00 +19°C° 0.5 mm 4 mps 754 mmHg 83%
21:00 +18°C° 0.5 mm 4 mps 754 mmHg 87%
22:00 +17°C° 0.5 mm 4 mps 754 mmHg 92%
23:00 +17°C° 0.9 mm 4 mps 754 mmHg 93%
Show more